NOAA-19
1 33591U 09005A 10028.45536404 .00000202 00000-0 13618-3 0 4213
2 33591 098.7743 333.6518 0013800 328.4631 031.5693 14.11022003 50207
HUBBLE
1 20580U 90037B 10028.21046764 .00000421 00000-0 19433-4 0 5105
2 20580 028.4700 073.5965 0003596 151.8346 208.2442 15.00884921883698
ISS
1 25544U 98067A 10028.85115464 .00013966 00000-0 93797-4 0 4657
2 25544 051.6433 226.2042 0010963 254.1893 190.1202 15.75468411641528
CO-58
1 28895U 05043F 10027.74852418 -.00000084 00000-0 -80852-5 0 04990
2 28895 098.0346 276.7189 0018230 008.2708 351.8815 14.59837824226498
FALCON
1 30776U 07006E 10027.77379882 .00000625 00000-0 48067-4 0 07649
2 30776 035.4319 176.6292 0001644 002.7907 357.2818 15.03437469158913
MAST
1 31126U 07012K 10026.62421311 -.00000050 00000-0 -63026-6 0 07877
2 31126 097.9580 075.8170 0094117 306.6537 052.6030 14.53547979147498
CAPE1
1 31130U 07012P 10027.64064426 -.00000262 00000-0 -49364-4 0 8003
2 31130 097.9585 074.4787 0102178 310.6457 048.5888 14.52126380147268
COMPASS
1 32787U 08021E 10028.32264326 -.00000056 00000-0 -33765-6 0 5817
2 32787 097.9136 094.9010 0016262 024.0090 336.1873 14.81742382 94788
AAUSAT2
1 32788U 08021F 10028.67640469 .00000528 00000-0 73337-4 0 5754
2 32788 097.9147 095.3511 0015624 025.4964 334.7088 14.81877792 94841
DO-64
1 32789U 08021G 10027.81722040 .00000759 00000-0 10236-3 0 05930
2 32789 097.9190 094.8300 0016064 025.1606 335.0387 14.81937803094711
CO-66
1 32791U 08021J 10028.66298363 -.00000099 00000-0 -57631-5 0 5710
2 32791 097.9144 095.2650 0016801 021.3098 338.8818 14.81550452 94797
RS-30
1 32953U 08025A 10027.67522514 .00000010 00000-0 00000-0 0 05121
2 32953 082.5035 117.0615 0019626 051.9282 308.3564 12.43003112076288
TACSAT-3
1 35001U 09028A 10027.93821503 .00004787 00000-0 12146-3 0 02074
2 35001 040.4568 335.5852 0022608 031.4754 328.7383 15.40117349038999
PHARMSAT
1 35002U 09028B 10028.91849546 .00003971 00000-0 99354-4 0 1936
2 35002 040.4703 328.2922 0025345 043.7333 316.5444 15.40795409 39159
HAWKSAT1
1 35003U 09028C 10027.93942732 .00008147 00000-0 18801-3 0 02027
2 35003 040.4619 332.0787 0024396 042.6117 317.6563 15.42306118039039
CP6
1 35004U 09028D 10027.92362564 .00009616 00000-0 21870-3 0 01937
2 35004 040.4625 331.9701 0024021 042.9026 317.3626 15.42607149039022
AEROCUB3
1 35005U 09028E 10028.20880361 .00017477 00000-0 38810-3 0 2016
2 35005 040.4729 330.8899 0022673 042.2065 318.0499 15.42973391 39066
DRAGNSAT
1 35690U 09038B 10028.77268253 .00088953 14421-4 21466-3 0 2145
2 35690 051.6343 211.2163 0001767 118.6834 241.4356 15.96390698 28938
POLLUX
1 35693U 09038E 10028.52202965 .00075089 00000-0 19991-3 0 2026
2 35693 051.6332 214.0884 0000484 335.4735 024.6776 15.93806409 28840
CASTOR
1 35694U 09038F 10028.52153948 .00024904 00000-0 98018-4 0 1716
2 35694 051.6366 217.9539 0002563 018.7269 341.4362 15.86114843 28791
METEOR-M
1 35865U 09049A 10028.65757868 .00000176 00000-0 10000-3 0 1138
2 35865 098.7796 083.3242 0003136 054.2388 305.9035 14.21828546 18892
RS-38
1 35869U 09049E 10028.78446769 .00000176 00000-0 10000-3 0 1164
2 35869 098.7760 083.4714 0005185 056.3372 303.7677 14.21971801 18918
